TimeEDT,TemperatureF,Dew PointF,Humidity,Sea Level PressureIn,VisibilityMPH,Wind Direction,Wind SpeedMPH,Gust SpeedMPH,PrecipitationIn,Events,Conditions,WindDirDegrees,DateUTC
12:15 AM,70.0,68.2,94,30.05,5.0,Calm,Calm,-,N/A,,Clear,0,2013-06-26 04:15:00
12:35 AM,69.4,68.0,95,30.04,7.0,SSE,3.5,-,N/A,,Clear,160,2013-06-26 04:35:00
12:55 AM,69.8,68.4,95,30.04,10.0,Calm,Calm,-,N/A,,Clear,0,2013-06-26 04:55:00
1:15 AM,69.1,68.0,96,30.03,2.5,Calm,Calm,-,N/A,,Clear,0,2013-06-26 05:15:00
1:35 AM,69.8,68.5,96,30.03,5.0,Calm,Calm,-,N/A,,Clear,0,2013-06-26 05:35:00
1:55 AM,69.3,68.2,96,30.02,5.0,Calm,Calm,-,N/A,,Clear,0,2013-06-26 05:55:00
2:15 AM,69.3,68.2,96,30.01,2.0,Calm,Calm,-,N/A,,Clear,0,2013-06-26 06:15:00
2:35 AM,69.1,68.0,96,30.01,7.0,Calm,Calm,-,N/A,,Clear,0,2013-06-26 06:35:00
2:55 AM,68.0,67.1,97,30.01,1.2,Calm,Calm,-,N/A,,Mist,0,2013-06-26 06:55:00
3:15 AM,67.5,66.6,97,30.01,7.0,Calm,Calm,-,N/A,,Clear,0,2013-06-26 07:15:00
3:35 AM,68.0,67.1,97,30.00,10.0,Calm,Calm,-,N/A,,Clear,0,2013-06-26 07:35:00
3:55 AM,67.3,66.4,97,30.00,5.0,Calm,Calm,-,N/A,,Clear,0,2013-06-26 07:55:00
4:15 AM,67.1,66.2,97,30.01,7.0,Calm,Calm,-,N/A,,Clear,0,2013-06-26 08:15:00
4:35 AM,67.1,66.2,97,30.00,10.0,Calm,Calm,-,N/A,,Scattered Clouds,0,2013-06-26 08:35:00
4:55 AM,68.2,67.3,97,30.01,10.0,Calm,Calm,-,N/A,,Scattered Clouds,0,2013-06-26 08:55:00
5:15 AM,67.3,66.2,96,30.00,5.0,Calm,Calm,-,N/A,,Clear,0,2013-06-26 09:15:00
5:35 AM,67.5,66.4,96,30.00,5.0,Calm,Calm,-,N/A,,Clear,0,2013-06-26 09:35:00
5:55 AM,68.0,66.9,96,30.00,5.0,Calm,Calm,-,N/A,,Clear,0,2013-06-26 09:55:00
6:15 AM,68.2,67.1,96,30.00,10.0,Calm,Calm,-,N/A,,Clear,0,2013-06-26 10:15:00
6:35 AM,68.9,67.8,96,30.02,10.0,Calm,Calm,-,N/A,,Clear,0,2013-06-26 10:35:00
6:55 AM,69.1,68.0,96,30.02,4.0,Calm,Calm,-,N/A,,Clear,0,2013-06-26 10:55:00
7:15 AM,70.9,69.8,96,30.03,10.0,Calm,Calm,-,N/A,,Clear,0,2013-06-26 11:15:00
7:35 AM,72.5,70.5,93,30.02,10.0,SSW,4.6,-,N/A,,Clear,200,2013-06-26 11:35:00
7:55 AM,73.9,70.3,88,30.03,10.0,South,5.8,-,N/A,,Clear,190,2013-06-26 11:55:00
8:15 AM,75.2,70.3,85,30.02,10.0,SW,5.8,-,N/A,,Clear,220,2013-06-26 12:15:00
8:35 AM,76.1,70.3,82,30.03,10.0,SW,5.8,-,N/A,,Scattered Clouds,230,2013-06-26 12:35:00
8:55 AM,77.0,70.5,80,30.03,10.0,WSW,8.1,-,N/A,,Scattered Clouds,250,2013-06-26 12:55:00
9:15 AM,76.3,70.5,82,30.03,10.0,SW,8.1,-,N/A,,Mostly Cloudy,230,2013-06-26 13:15:00
9:35 AM,76.5,70.5,82,30.02,10.0,WSW,8.1,-,N/A,,Overcast,240,2013-06-26 13:35:00
9:55 AM,77.9,70.9,79,30.02,10.0,West,8.1,-,N/A,,Mostly Cloudy,260,2013-06-26 13:55:00
10:15 AM,78.6,70.9,77,30.02,10.0,SW,5.8,-,N/A,,Mostly Cloudy,230,2013-06-26 14:15:00
10:55 AM,81.0,71.8,74,30.00,10.0,SW,5.8,-,N/A,,Scattered Clouds,220,2013-06-26 14:55:00
11:15 AM,82.2,72.3,72,29.99,10.0,SSW,6.9,-,N/A,,Scattered Clouds,200,2013-06-26 15:15:00
11:35 AM,83.3,72.5,70,29.99,10.0,WSW,5.8,-,N/A,,Scattered Clouds,240,2013-06-26 15:35:00
11:55 AM,84.0,72.5,68,29.99,10.0,SW,4.6,-,N/A,,Scattered Clouds,230,2013-06-26 15:55:00
12:15 PM,85.5,73.0,66,29.99,10.0,SSW,8.1,-,N/A,,Scattered Clouds,210,2013-06-26 16:15:00
12:35 PM,86.0,72.1,63,29.99,10.0,WSW,9.2,-,N/A,,Scattered Clouds,240,2013-06-26 16:35:00
12:55 PM,86.9,72.3,62,29.99,10.0,WSW,8.1,-,N/A,,Scattered Clouds,240,2013-06-26 16:55:00
1:15 PM,86.2,71.8,62,29.99,10.0,WSW,6.9,-,N/A,,Scattered Clouds,250,2013-06-26 17:15:00
1:35 PM,87.8,71.6,58,29.98,10.0,WSW,6.9,-,N/A,,Scattered Clouds,240,2013-06-26 17:35:00
1:55 PM,88.2,71.4,57,29.97,10.0,WSW,8.1,-,N/A,,Scattered Clouds,250,2013-06-26 17:55:00
2:15 PM,87.4,71.8,60,29.96,10.0,SW,6.9,-,N/A,,Scattered Clouds,230,2013-06-26 18:15:00
2:35 PM,85.8,72.0,63,29.95,10.0,WSW,4.6,-,N/A,,Scattered Clouds,250,2013-06-26 18:35:00
2:55 PM,85.1,72.1,65,29.95,10.0,SW,4.6,-,N/A,,Clear,230,2013-06-26 18:55:00
3:15 PM,86.0,73.2,65,29.94,10.0,South,5.8,-,N/A,,Clear,180,2013-06-26 19:15:00
3:35 PM,81.5,71.8,72,29.94,10.0,South,8.1,-,N/A,,Clear,190,2013-06-26 19:35:00
3:55 PM,79.7,70.5,73,29.94,10.0,South,6.9,-,N/A,,Clear,190,2013-06-26 19:55:00
4:15 PM,79.2,70.7,75,29.93,10.0,SSW,5.8,-,N/A,,Clear,200,2013-06-26 20:15:00
4:35 PM,80.6,70.2,70,29.92,10.0,SSW,6.9,-,N/A,,Clear,200,2013-06-26 20:35:00
4:55 PM,81.9,70.9,69,29.91,10.0,South,5.8,-,N/A,,Clear,170,2013-06-26 20:55:00
5:15 PM,82.9,71.6,68,29.92,10.0,South,5.8,-,N/A,,Clear,170,2013-06-26 21:15:00
5:35 PM,84.2,72.5,68,29.93,10.0,SSW,4.6,-,N/A,,Clear,200,2013-06-26 21:35:00
5:55 PM,86.0,73.0,65,29.93,10.0,South,5.8,-,N/A,,Clear,180,2013-06-26 21:55:00
6:15 PM,85.8,72.9,65,29.92,10.0,South,6.9,-,N/A,,Clear,170,2013-06-26 22:15:00
6:35 PM,85.5,73.6,67,29.93,10.0,South,5.8,-,N/A,,Clear,170,2013-06-26 22:35:00
6:55 PM,83.8,74.3,73,29.94,10.0,Calm,Calm,-,N/A,,Scattered Clouds,0,2013-06-26 22:55:00
7:15 PM,82.0,73.9,76,29.96,10.0,NW,18.4,24.2,N/A,,Mostly Cloudy,320,2013-06-26 23:15:00
7:35 PM,77.0,65.5,67,29.99,10.0,NW,17.3,24.2,N/A,,Overcast,320,2013-06-26 23:35:00
7:55 PM,69.8,67.3,92,29.97,1.5,Calm,Calm,-,0.45,Rain,Heavy Rain,0,2013-06-26 23:55:00
8:15 PM,69.8,67.6,93,29.99,7.0,Calm,Calm,-,0.04,Rain,Light Rain,0,2013-06-27 00:15:00
8:35 PM,69.8,68.0,94,29.96,10.0,SSW,3.5,-,0.04,Rain,Rain,200,2013-06-27 00:35:00
8:55 PM,70.2,68.7,95,29.97,10.0,West,8.1,-,0.05,Rain,Light Rain,270,2013-06-27 00:55:00
9:15 PM,70.0,68.7,96,30.00,10.0,SSW,5.8,-,N/A,Rain,Light Rain,210,2013-06-27 01:15:00
9:35 PM,70.0,68.5,95,29.99,10.0,SSE,3.5,-,N/A,Rain,Light Rain,160,2013-06-27 01:35:00
9:55 PM,69.8,68.4,95,29.98,5.0,SSE,3.5,-,0.02,Rain,Rain,150,2013-06-27 01:55:00
10:15 PM,69.3,68.0,96,29.97,10.0,South,3.5,-,0.02,Rain,Rain,180,2013-06-27 02:15:00
10:35 PM,69.1,68.0,96,29.98,10.0,SSW,6.9,-,0.03,Rain,Light Rain,200,2013-06-27 02:35:00
10:55 PM,68.9,67.5,95,29.97,10.0,Calm,Calm,-,0.03,,Light Drizzle,0,2013-06-27 02:55:00
11:15 PM,68.9,67.5,95,29.97,10.0,Calm,Calm,-,N/A,,Clear,0,2013-06-27 03:15:00
11:35 PM,68.7,67.3,95,29.94,7.0,Calm,Calm,-,N/A,,Clear,0,2013-06-27 03:35:00
11:55 PM,68.9,67.6,96,29.95,10.0,WSW,6.9,-,N/A,,Clear,240,2013-06-27 03:55:00